Flag for Finland Weather past 2 weeks in Turku, Finland

Now
61 °F

Clear.


Feels Like: 61 °F
Forecast: 62 / 84 °F
Wind: 2 mph from Southeast

Location: Turku Airport

Current Time: Jul 25, 2014 at 2:28:12 AM

Latest Report: Jul 25, 2014 at 1:50 AM


Visibility: 10 mi

Pressure: 30.15 "Hg

Humidity: 88%

Dew point: 57 °F

Location of TurkuLocation

Historic Weather in Turku — Graph

°F

Turku temperature yesterday

Maximum temperature yesterday: 88 °F (at 5:50 PM)
Minimum temperature yesterday: 55 °F (at 3:50 AM)
Average temperature yesterday: 73 °F

Past Weeks' High & Low Weather Summary

 TemperatureHumidityPressure
High88 °F (Jul 24, 5:50 PM)100% (Jul 12, 2:50 AM)30.27 "Hg (Jul 12, 2:50 AM)
Low48 °F (Jul 11, 3:50 AM)26% (Jul 22, 4:20 PM)29.80 "Hg (Jul 13, 7:20 PM)
Average67 °F70%30.06 "Hg
* Reported Jul 10 1:20 AM — Jul 25 1:20 AM, Turku, Weather by CustomWeather, © 2014

Note: Actual official high and low records may vary slightly from our data, if they occured in-between our weather recording intervals... More about our weather records

Advertising

Turku weather history for previous 24 hours

 ConditionsComfort  
Time TempWeatherWind HumidityBarometerVisibility
1:20 AM
Jul 25
61 °FClear.No wind83%30.15 "Hg10 mi
12:50 AM63 °FClear.No wind77%30.15 "Hg10 mi
12:20 AM64 °FClear.No wind78%30.15 "Hg10 mi
11:50 PM
Jul 24
64 °FClear.No wind78%30.15 "Hg10 mi
11:20 PM66 °FSunny.No wind73%30.15 "Hg10 mi
10:50 PM68 °FSunny.No wind73%30.15 "Hg10 mi
10:20 PM77 °FSunny.3 mph44%30.15 "Hg10 mi
9:50 PM79 °FSunny.5 mph45%30.12 "Hg10 mi
9:20 PM81 °FSunny.5 mph45%30.12 "Hg10 mi
8:50 PM82 °FSunny.6 mph42%30.12 "Hg10 mi
8:20 PM84 °FSunny.7 mph35%30.12 "Hg10 mi
7:50 PM86 °FPassing clouds.9 mph31%30.12 "HgN/A
7:20 PM86 °FPassing clouds.9 mph29%30.12 "HgN/A
6:50 PM86 °FSunny.12 mph27%30.12 "Hg10 mi
6:20 PM86 °FPassing clouds.12 mph27%30.12 "HgN/A
5:50 PM88 °FPassing clouds.3 mph35%30.12 "HgN/A
5:20 PM86 °FScattered clouds.5 mph40%30.12 "HgN/A
4:50 PM84 °FScattered clouds.7 mph43%30.12 "HgN/A
4:20 PM82 °FScattered clouds.5 mph48%30.15 "HgN/A
3:50 PM82 °FScattered clouds.3 mph48%30.15 "HgN/A
3:20 PM82 °FLight rain. Scattered clouds.6 mph45%30.15 "HgN/A
2:50 PM82 °FPassing clouds.3 mph48%30.15 "HgN/A
2:20 PM84 °FThundershowers. Scattered clouds.6 mph43%30.15 "HgN/A
1:50 PM86 °FScattered clouds.8 mph40%30.15 "HgN/A
1:20 PM86 °FPassing clouds.6 mph40%30.15 "HgN/A
12:50 PM86 °FPassing clouds.6 mph43%30.15 "HgN/A
12:20 PM84 °FPassing clouds.6 mph48%30.15 "HgN/A
11:50 AM84 °FPassing clouds.6 mph45%30.15 "HgN/A
11:20 AM82 °FPassing clouds.5 mph48%30.15 "HgN/A
10:50 AM81 °FPassing clouds.5 mph51%30.15 "HgN/A
10:20 AM79 °FPassing clouds.5 mph51%30.15 "HgN/A
9:50 AM77 °FPassing clouds.3 mph57%30.15 "HgN/A
9:20 AM75 °FSunny.2 mph61%30.15 "Hg10 mi
8:50 AM73 °FSunny.2 mph65%30.18 "Hg10 mi
8:20 AM72 °FSunny.1 mph73%30.18 "Hg10 mi
7:50 AM68 °FSunny.5 mph78%30.18 "Hg10 mi
7:20 AM66 °FSunny.1 mph78%30.18 "Hg10 mi
6:50 AM63 °FSunny.No wind83%30.18 "Hg10 mi
6:20 AM59 °FSunny.1 mph82%30.18 "Hg10 mi
5:50 AM57 °FSunny.No wind82%30.18 "Hg10 mi
5:20 AM55 °FClear.1 mph88%30.18 "Hg10 mi
4:50 AM55 °FClear.1 mph88%30.18 "Hg10 mi
4:20 AM55 °FClear.1 mph88%30.18 "Hg10 mi
3:50 AM55 °FClear.1 mph88%30.18 "Hg10 mi
3:20 AM57 °FClear.No wind82%30.18 "Hg10 mi
2:50 AM57 °FClear.1 mph82%30.18 "Hg10 mi
2:20 AM57 °FClear.No wind82%30.21 "Hg10 mi
Weather by CustomWeather, © 2014

See weather overviewHow to use our weather pages